FORMOSAT-3 FM4 (29051 NORAD) Tracking and Keplerian Element Data

This shows tracking and keplerian element data for the satellite.

Feedback or suggestion? Click here.




ElementValue
Catalog29051
NameFORMOSAT-3 FM4
Epoch Orbit83276
Epoch Day72.90933875
Epoch Year2022
RAAN241.1241
Inclination72.0035
Eccentricity0.0069885
Argument of Perigee267.5995
Mean Anonmoly91.7139
Mean Motion14.28987443
Decay Rate3.73E-06
L11 29051U 06011E 22072.90933875 .00000373 00000+0 15978-3 0 9997
L22 29051 72.0035 241.1241 0069885 267.5995 91.7139 14.28987443832766



Live tracking and technical data element details for FORMOSAT-3 FM4 (NORAD 29051). FORMOSAT-3 FM4 can be tracked NOW for your location showing map with azimuth and elevation plus other details from your city location.







IsCatalogInMostPopularTable: catalog: 29051, numindb: 440
Update: records affected: 1



GetName: 29051 FORMOSAT-3 FM4

Hit Count: updated at: Sat, 07 Mar 2026 05:42:07 GMT